Location: Allen Lane School
(37.8198°N, 89.7382°W)
Time: 21:00:18
(UTC+00:00)

Cosmos 44 - Pass Details

Date: 10 July 2022
Orbit: 595 x 766 km, 65.1° (Epoch: 13 August)

Event Time Altitude Azimuth Distance (km) Brightness Sun altitude
Exits shadow 03:41:37 12° 70° (ENE) 1,869 5.4 -21.2°
Drops below altitude 10° 03:42:12 10° 64° (ENE) 2,020 5.6 -21.3°
Sets 03:44:55 0° 47° (NE) 2,904 6.6 -21.6°
